SWA4472 KSTL-KLAS

Flight info

Callsign SWA4472
Flight time N/A
Altitude 36000
Route BRAKK5 HLV MCI J80 HLC/N0463F380 J80 GLD J146 DICEE TYEGR CHOWW4
Aircraft B738/M-SDE2E3FGHIRWXY/LB1

Departure

Time 2026-05-05 15:51
Airport St. Louis Lambert International Airport (KSTL)

Arrival

Time N/A
Airport Harry Reid International Airport (KLAS)
Time Latitude Longitude Altitude Speed Heading
2026-05-05 15:28 38.73878 -90.36008 558 ft 0 kts 207°
2026-05-05 15:38 38.73880 -90.36006 569 ft 2 kts 207°
2026-05-05 15:38 38.73897 -90.35996 566 ft 3 kts 205°
2026-05-05 15:38 38.73915 -90.35985 564 ft 3 kts 202°
2026-05-05 15:39 38.73932 -90.35976 566 ft 2 kts 203°
2026-05-05 15:39 38.73937 -90.35973 563 ft 0 kts 203°
2026-05-05 15:41 38.73921 -90.35958 561 ft 8 kts 135°
2026-05-05 15:41 38.73860 -90.35851 560 ft 19 kts 122°
2026-05-05 15:41 38.73884 -90.35710 561 ft 8 kts 61°
2026-05-05 15:42 38.73954 -90.35640 556 ft 15 kts 32°
2026-05-05 15:42 38.74016 -90.35591 553 ft 13 kts 31°
2026-05-05 15:42 38.74068 -90.35515 558 ft 9 kts 98°
2026-05-05 15:42 38.74030 -90.35438 562 ft 12 kts 122°
2026-05-05 15:43 38.73979 -90.35335 565 ft 16 kts 122°
2026-05-05 15:43 38.73917 -90.35207 563 ft 18 kts 124°
2026-05-05 15:43 38.73856 -90.35087 567 ft 15 kts 122°
2026-05-05 15:43 38.73793 -90.34958 575 ft 16 kts 123°
2026-05-05 15:44 38.73736 -90.34844 578 ft 13 kts 122°
2026-05-05 15:44 38.73706 -90.34741 573 ft 0 kts 68°
2026-05-05 15:49 38.73732 -90.34705 572 ft 11 kts 36°
2026-05-05 15:49 38.73791 -90.34669 570 ft 1 kts 328°
2026-05-05 15:49 38.73800 -90.34691 576 ft 7 kts 300°
2026-05-05 15:49 38.73803 -90.34698 575 ft 0 kts 301°
2026-05-05 15:50 38.73863 -90.34823 568 ft 45 kts 302°
2026-05-05 15:50 38.74146 -90.35393 557 ft 105 kts 302°
2026-05-05 15:50 38.74623 -90.36361 540 ft 151 kts 302°
2026-05-05 15:50 38.75205 -90.37570 819 ft 168 kts 307°
2026-05-05 15:51 38.75907 -90.38905 1087 ft 190 kts 307°
2026-05-05 15:51 38.76631 -90.40334 1810 ft 183 kts 307°
2026-05-05 15:51 38.77255 -90.41660 2615 ft 175 kts 308°
2026-05-05 15:51 38.77943 -90.43067 2818 ft 200 kts 308°
2026-05-05 15:52 38.78718 -90.44648 2996 ft 219 kts 305°
2026-05-05 15:52 38.79368 -90.46525 3136 ft 241 kts 293°
2026-05-05 15:52 38.79905 -90.48624 3395 ft 253 kts 290°
2026-05-05 15:52 38.80442 -90.50830 3658 ft 269 kts 290°
2026-05-05 15:53 38.81012 -90.53171 4148 ft 276 kts 288°
2026-05-05 15:53 38.81579 -90.55480 5057 ft 266 kts 286°
2026-05-05 15:53 38.82136 -90.57726 5820 ft 265 kts 285°
2026-05-05 15:53 38.82689 -90.59975 6544 ft 262 kts 284°
2026-05-05 15:54 38.83248 -90.62205 7203 ft 264 kts 284°
2026-05-05 15:54 38.83820 -90.64470 7786 ft 269 kts 285°
2026-05-05 15:54 38.84402 -90.66765 8407 ft 273 kts 285°
2026-05-05 15:54 38.84989 -90.69095 9085 ft 275 kts 285°
2026-05-05 15:55 38.85578 -90.71430 9838 ft 275 kts 285°
2026-05-05 15:55 38.86172 -90.73788 10311 ft 285 kts 285°
2026-05-05 15:55 38.86796 -90.76272 10461 ft 306 kts 285°
2026-05-05 15:55 38.87472 -90.78962 10626 ft 326 kts 286°
2026-05-05 15:56 38.88188 -90.81817 10784 ft 345 kts 286°
2026-05-05 15:56 38.88944 -90.84825 10953 ft 361 kts 286°
2026-05-05 15:56 38.89729 -90.87939 11327 ft 370 kts 286°
2026-05-05 15:56 38.90523 -90.91088 11944 ft 371 kts 286°
2026-05-05 15:57 38.91315 -90.94237 12635 ft 371 kts 286°
2026-05-05 15:57 38.92107 -90.97397 13278 ft 372 kts 286°
2026-05-05 15:57 38.92901 -91.00568 13852 ft 375 kts 286°
2026-05-05 15:57 38.93699 -91.03764 14439 ft 376 kts 286°
2026-05-05 15:58 38.94498 -91.06967 15068 ft 377 kts 286°
2026-05-05 15:58 38.95299 -91.10179 15698 ft 377 kts 285°
2026-05-05 15:58 38.96098 -91.13393 16301 ft 378 kts 285°
2026-05-05 15:58 38.96884 -91.16624 16883 ft 379 kts 283°
2026-05-05 15:59 38.97479 -91.19923 17461 ft 380 kts 279°
2026-05-05 15:59 38.97967 -91.23268 18024 ft 381 kts 278°
2026-05-05 15:59 38.98440 -91.26584 18518 ft 383 kts 278°
2026-05-05 15:59 38.98941 -91.29958 18982 ft 385 kts 279°
2026-05-05 16:00 38.99460 -91.33342 19455 ft 387 kts 279°
2026-05-05 16:00 38.99987 -91.36745 19919 ft 389 kts 278°
2026-05-05 16:00 39.00509 -91.40155 20382 ft 390 kts 278°
2026-05-05 16:00 39.01034 -91.43601 20847 ft 392 kts 278°
2026-05-05 16:01 39.01559 -91.47053 21292 ft 394 kts 278°
2026-05-05 16:01 39.02084 -91.50519 21736 ft 396 kts 278°
2026-05-05 16:01 39.02611 -91.54003 22164 ft 398 kts 278°
2026-05-05 16:01 39.03140 -91.57506 22568 ft 400 kts 278°
2026-05-05 16:02 39.03671 -91.61025 22966 ft 402 kts 278°
2026-05-05 16:02 39.04204 -91.64565 23371 ft 404 kts 278°
2026-05-05 16:02 39.04738 -91.68121 23732 ft 405 kts 278°
2026-05-05 16:02 39.05274 -91.71690 24113 ft 405 kts 278°
2026-05-05 16:03 39.05806 -91.75241 24518 ft 404 kts 278°
2026-05-05 16:03 39.06336 -91.78791 24900 ft 404 kts 278°
2026-05-05 16:03 39.06858 -91.82297 25246 ft 404 kts 278°
2026-05-05 16:03 39.07385 -91.85844 25596 ft 404 kts 278°
2026-05-05 16:04 39.07911 -91.89396 25877 ft 404 kts 278°
2026-05-05 16:04 39.08436 -91.92949 26188 ft 405 kts 278°
2026-05-05 16:04 39.08962 -91.96514 26447 ft 406 kts 279°
2026-05-05 16:04 39.09490 -92.00098 26753 ft 406 kts 279°
2026-05-05 16:05 39.10015 -92.03669 27086 ft 405 kts 279°
2026-05-05 16:05 39.10537 -92.07224 27564 ft 401 kts 279°
2026-05-05 16:05 39.11048 -92.10712 28232 ft 392 kts 279°
2026-05-05 16:05 39.11484 -92.14127 28941 ft 383 kts 276°
2026-05-05 16:06 39.11760 -92.17513 29539 ft 377 kts 276°
2026-05-05 16:06 39.12010 -92.20864 30006 ft 374 kts 276°
2026-05-05 16:06 39.12252 -92.24192 30356 ft 372 kts 276°
2026-05-05 16:06 39.12494 -92.27510 30625 ft 372 kts 276°
2026-05-05 16:07 39.12737 -92.30827 30905 ft 371 kts 275°
2026-05-05 16:07 39.12981 -92.34130 31254 ft 369 kts 276°
2026-05-05 16:07 39.13222 -92.37376 31541 ft 369 kts 276°
2026-05-05 16:07 39.13466 -92.40666 31790 ft 369 kts 276°
2026-05-05 16:08 39.13710 -92.43954 32056 ft 368 kts 276°
2026-05-05 16:08 39.13953 -92.47236 32354 ft 367 kts 276°
2026-05-05 16:08 39.14195 -92.50508 32645 ft 366 kts 276°
2026-05-05 16:08 39.14435 -92.53770 32933 ft 366 kts 276°
2026-05-05 16:09 39.14674 -92.57031 33211 ft 365 kts 276°
2026-05-05 16:09 39.14912 -92.60282 33484 ft 364 kts 276°
2026-05-05 16:09 39.15148 -92.63524 33757 ft 363 kts 276°
2026-05-05 16:09 39.15383 -92.66764 34014 ft 363 kts 276°
2026-05-05 16:10 39.15613 -92.69958 34255 ft 361 kts 276°
2026-05-05 16:10 39.15845 -92.73180 34472 ft 360 kts 276°
2026-05-05 16:10 39.16075 -92.76391 34683 ft 360 kts 276°
2026-05-05 16:10 39.16305 -92.79603 34887 ft 359 kts 276°
2026-05-05 16:11 39.16532 -92.82807 35046 ft 360 kts 276°
2026-05-05 16:11 39.17138 -92.91387 35416 ft 361 kts 276°
2026-05-05 16:12 39.17364 -92.94607 35627 ft 360 kts 276°
2026-05-05 16:12 39.17811 -93.01022 35963 ft 359 kts 276°
2026-05-05 16:13 39.18476 -93.10669 35993 ft 359 kts 275°
2026-05-05 16:13 39.18912 -93.17058 36008 ft 357 kts 275°
2026-05-05 16:14 39.19769 -93.29763 36000 ft 355 kts 275°
2026-05-05 16:15 39.20611 -93.42454 35994 ft 356 kts 275°
2026-05-05 16:16 39.21439 -93.55155 35973 ft 358 kts 275°
2026-05-05 16:17 39.22055 -93.64737 35970 ft 357 kts 275°
2026-05-05 16:18 39.22664 -93.74330 35966 ft 358 kts 275°
2026-05-05 16:19 39.23264 -93.83916 35982 ft 357 kts 275°
2026-05-05 16:19 39.23852 -93.93436 35975 ft 355 kts 275°
2026-05-05 16:20 39.24624 -94.06122 35987 ft 354 kts 275°
2026-05-05 16:22 39.25569 -94.21979 36007 ft 354 kts 275°
2026-05-05 16:23 39.26307 -94.34634 36001 ft 353 kts 275°
2026-05-05 16:23 39.26852 -94.44123 36032 ft 353 kts 274°
2026-05-05 16:24 39.27208 -94.50406 36002 ft 353 kts 274°
2026-05-05 16:25 39.27739 -94.59874 35988 ft 352 kts 274°
2026-05-05 16:25 39.28260 -94.69306 35991 ft 351 kts 274°
2026-05-05 16:26 39.28704 -94.81878 35994 ft 351 kts 272°
2026-05-05 16:27 39.28786 -94.88170 35990 ft 351 kts 272°
2026-05-05 16:27 39.28878 -94.94473 35987 ft 351 kts 272°
2026-05-05 16:28 39.28977 -95.00723 35985 ft 351 kts 271°
2026-05-05 16:28 39.29077 -95.07016 35989 ft 351 kts 271°
2026-05-05 16:29 39.29175 -95.13319 35980 ft 351 kts 271°
2026-05-05 16:29 39.29270 -95.19608 35989 ft 350 kts 271°
2026-05-05 16:30 39.29361 -95.25898 35989 ft 350 kts 271°
2026-05-05 16:30 39.29450 -95.32189 35987 ft 350 kts 271°
2026-05-05 16:31 39.29535 -95.38477 35986 ft 351 kts 271°
2026-05-05 16:31 39.29616 -95.44776 35986 ft 351 kts 271°
2026-05-05 16:32 39.29694 -95.51075 35993 ft 351 kts 271°
2026-05-05 16:32 39.29769 -95.57383 35994 ft 351 kts 271°
2026-05-05 16:33 39.29841 -95.63683 35983 ft 351 kts 271°
2026-05-05 16:33 39.29909 -95.69990 35982 ft 351 kts 271°
2026-05-05 16:34 39.29974 -95.76300 35984 ft 352 kts 271°
2026-05-05 16:34 39.30035 -95.82619 35987 ft 352 kts 271°
2026-05-05 16:35 39.30093 -95.88939 35985 ft 352 kts 271°
2026-05-05 16:35 39.30148 -95.95268 35992 ft 352 kts 270°
2026-05-05 16:36 39.30199 -96.01557 35989 ft 352 kts 270°
2026-05-05 16:36 39.30248 -96.07891 35988 ft 353 kts 270°
2026-05-05 16:37 39.30292 -96.14225 35990 ft 353 kts 270°
2026-05-05 16:37 39.30333 -96.20564 35996 ft 353 kts 270°
2026-05-05 16:38 39.30369 -96.26906 35992 ft 353 kts 270°
2026-05-05 16:38 39.30402 -96.33216 35995 ft 353 kts 270°
2026-05-05 16:39 39.30433 -96.39567 35994 ft 354 kts 270°
2026-05-05 16:39 39.30460 -96.45913 35998 ft 353 kts 270°
2026-05-05 16:40 39.30484 -96.52257 36000 ft 353 kts 270°
2026-05-05 16:40 39.30504 -96.58601 36000 ft 353 kts 270°
2026-05-05 16:41 39.30521 -96.64952 36002 ft 353 kts 270°
2026-05-05 16:41 39.30534 -96.71287 36004 ft 352 kts 270°
2026-05-05 16:42 39.30544 -96.77616 35999 ft 352 kts 270°
2026-05-05 16:42 39.30550 -96.83938 36002 ft 352 kts 270°
2026-05-05 16:43 39.30553 -96.90227 36001 ft 352 kts 269°
2026-05-05 16:43 39.30553 -96.96560 36004 ft 353 kts 269°
2026-05-05 16:44 39.30549 -97.02905 35999 ft 353 kts 269°
2026-05-05 16:44 39.30542 -97.09248 35997 ft 353 kts 269°
2026-05-05 16:45 39.30531 -97.15609 36003 ft 353 kts 269°
2026-05-05 16:45 39.30517 -97.21953 36003 ft 354 kts 269°
2026-05-05 16:46 39.30499 -97.28307 36003 ft 354 kts 269°
2026-05-05 16:46 39.30478 -97.34619 36006 ft 354 kts 269°
2026-05-05 16:47 39.30454 -97.40990 35997 ft 355 kts 269°
2026-05-05 16:47 39.30427 -97.47356 36003 ft 354 kts 269°
2026-05-05 16:48 39.30395 -97.53716 36004 ft 354 kts 269°
2026-05-05 16:48 39.30360 -97.60071 36012 ft 354 kts 268°
2026-05-05 16:49 39.30322 -97.66418 36004 ft 353 kts 268°
2026-05-05 16:49 39.30279 -97.72716 36011 ft 353 kts 268°
2026-05-05 16:50 39.30234 -97.79046 36013 ft 352 kts 268°
2026-05-05 16:50 39.30185 -97.85367 36010 ft 351 kts 268°
2026-05-05 16:51 39.30134 -97.91671 36016 ft 351 kts 268°
2026-05-05 16:51 39.30079 -97.97949 36022 ft 350 kts 267°
2026-05-05 16:52 39.30021 -98.04264 36017 ft 351 kts 267°
2026-05-05 16:52 39.29959 -98.10571 36011 ft 351 kts 267°
2026-05-05 16:53 39.29893 -98.16881 36022 ft 351 kts 267°
2026-05-05 16:53 39.29825 -98.23142 36032 ft 352 kts 267°
2026-05-05 16:54 39.29753 -98.29463 36019 ft 352 kts 267°
2026-05-05 16:54 39.29678 -98.35776 36036 ft 351 kts 267°
2026-05-05 16:55 39.29599 -98.42077 36031 ft 351 kts 267°
2026-05-05 16:55 39.29517 -98.48378 36029 ft 351 kts 267°
2026-05-05 16:56 39.29431 -98.54683 36039 ft 351 kts 267°
2026-05-05 16:56 39.29342 -98.60985 36039 ft 351 kts 267°
2026-05-05 16:57 39.29250 -98.67291 36037 ft 351 kts 267°
2026-05-05 16:57 39.29154 -98.73591 36028 ft 351 kts 266°
2026-05-05 16:58 39.29056 -98.79846 36051 ft 351 kts 266°
2026-05-05 16:58 39.28953 -98.86151 36043 ft 351 kts 266°
2026-05-05 16:59 39.28864 -98.91444 36052 ft 352 kts 266°
2026-05-05 16:59 39.28756 -98.97722 36045 ft 352 kts 266°
2026-05-05 17:00 39.28644 -99.04040 36052 ft 352 kts 266°
2026-05-05 17:00 39.28528 -99.10362 36057 ft 352 kts 266°
2026-05-05 17:01 39.28408 -99.16695 36047 ft 353 kts 266°
2026-05-05 17:01 39.28285 -99.23032 36050 ft 353 kts 266°
2026-05-05 17:02 39.28158 -99.29365 36045 ft 353 kts 266°
2026-05-05 17:02 39.28028 -99.35699 36034 ft 353 kts 266°
2026-05-05 17:03 39.27896 -99.41992 36044 ft 353 kts 266°
2026-05-05 17:03 39.27759 -99.48328 36046 ft 353 kts 266°
2026-05-05 17:04 39.27619 -99.54671 36049 ft 353 kts 265°
2026-05-05 17:04 39.27475 -99.61014 36055 ft 353 kts 265°
2026-05-05 17:05 39.27328 -99.67318 36054 ft 354 kts 265°
2026-05-05 17:05 39.27178 -99.73668 36054 ft 354 kts 265°
2026-05-05 17:06 39.27023 -99.80016 36050 ft 354 kts 265°
2026-05-05 17:06 39.26865 -99.86368 36045 ft 354 kts 265°
2026-05-05 17:07 39.26704 -99.92725 36037 ft 354 kts 265°
2026-05-05 17:07 39.26539 -99.99091 36043 ft 355 kts 265°
2026-05-05 17:08 39.26370 -100.05466 36035 ft 355 kts 265°
2026-05-05 17:08 39.26199 -100.11841 36043 ft 355 kts 265°
2026-05-05 17:09 39.26025 -100.18167 36036 ft 354 kts 265°
2026-05-05 17:09 39.26050 -100.24536 36031 ft 358 kts 271°
2026-05-05 17:10 39.26658 -100.30925 36039 ft 359 kts 272°
2026-05-05 17:10 39.27273 -100.37319 36036 ft 359 kts 272°
2026-05-05 17:11 39.27876 -100.43719 36023 ft 359 kts 271°
2026-05-05 17:11 39.28469 -100.50120 36039 ft 359 kts 271°
2026-05-05 17:12 39.29054 -100.56477 36037 ft 359 kts 271°
2026-05-05 17:12 39.29638 -100.62877 36048 ft 359 kts 271°
2026-05-05 17:13 39.30219 -100.69280 36040 ft 359 kts 271°
2026-05-05 17:13 39.30797 -100.75687 36104 ft 359 kts 271°
2026-05-05 17:14 39.31373 -100.82096 36063 ft 359 kts 271°
2026-05-05 17:14 39.31944 -100.88507 36050 ft 359 kts 271°
2026-05-05 17:15 39.32509 -100.94914 36042 ft 359 kts 271°
2026-05-05 17:15 39.33069 -101.01310 36042 ft 358 kts 271°
2026-05-05 17:16 39.33626 -101.07699 36036 ft 358 kts 271°
2026-05-05 17:16 39.34176 -101.14056 36030 ft 358 kts 271°
2026-05-05 17:17 39.34725 -101.20444 36029 ft 358 kts 271°
2026-05-05 17:17 39.35272 -101.26841 36029 ft 358 kts 271°
2026-05-05 17:18 39.35814 -101.33234 36031 ft 358 kts 271°
2026-05-05 17:18 39.36354 -101.39642 36046 ft 359 kts 271°
2026-05-05 17:19 39.36891 -101.46050 36055 ft 359 kts 271°
2026-05-05 17:19 39.37425 -101.52466 36061 ft 359 kts 271°
2026-05-05 17:20 39.37954 -101.58860 36032 ft 359 kts 271°
2026-05-05 17:20 39.38481 -101.65282 36032 ft 359 kts 270°
2026-05-05 17:21 39.38411 -101.71682 36036 ft 354 kts 260°
2026-05-05 17:22 39.37036 -101.81058 36062 ft 354 kts 257°
2026-05-05 17:22 39.36075 -101.87300 36057 ft 354 kts 257°
2026-05-05 17:23 39.35116 -101.93559 36053 ft 355 kts 257°
2026-05-05 17:23 39.34165 -101.99771 36042 ft 355 kts 257°
2026-05-05 17:24 39.33207 -102.06023 36033 ft 355 kts 257°
2026-05-05 17:24 39.32245 -102.12278 36032 ft 355 kts 257°
2026-05-05 17:25 39.31280 -102.18533 36028 ft 355 kts 257°
2026-05-05 17:25 39.30310 -102.24790 36063 ft 356 kts 257°
2026-05-05 17:26 39.29336 -102.31056 36065 ft 356 kts 257°
2026-05-05 17:26 39.28359 -102.37315 36066 ft 356 kts 257°
2026-05-05 17:27 39.27380 -102.43571 36052 ft 356 kts 257°
2026-05-05 17:27 39.26393 -102.49844 36048 ft 357 kts 257°
2026-05-05 17:28 39.25403 -102.56120 36039 ft 357 kts 257°
2026-05-05 17:28 39.24415 -102.62362 36031 ft 357 kts 257°
2026-05-05 17:29 39.23416 -102.68646 36022 ft 358 kts 257°
2026-05-05 17:29 39.22413 -102.74931 36008 ft 358 kts 257°
2026-05-05 17:30 39.21405 -102.81226 35993 ft 358 kts 256°
2026-05-05 17:30 39.20393 -102.87523 36003 ft 358 kts 256°
2026-05-05 17:31 39.19378 -102.93817 35995 ft 359 kts 256°
2026-05-05 17:31 39.18359 -103.00115 35996 ft 359 kts 256°
2026-05-05 17:32 39.17340 -103.06382 35995 ft 359 kts 256°
2026-05-05 17:32 39.16316 -103.12667 35997 ft 359 kts 256°
2026-05-05 17:33 39.15284 -103.18976 35993 ft 360 kts 256°
2026-05-05 17:33 39.14245 -103.25297 35995 ft 360 kts 256°
2026-05-05 17:34 39.13205 -103.31611 36006 ft 360 kts 256°
2026-05-05 17:34 39.12159 -103.37934 36007 ft 361 kts 256°
2026-05-05 17:35 39.11116 -103.44217 36017 ft 361 kts 256°
2026-05-05 17:35 39.10064 -103.50534 36030 ft 361 kts 255°
2026-05-05 17:36 39.09008 -103.56853 36026 ft 361 kts 255°
2026-05-05 17:36 39.07947 -103.63176 36024 ft 361 kts 255°
2026-05-05 17:37 39.06883 -103.69496 36027 ft 361 kts 255°
2026-05-05 17:37 39.05815 -103.75819 36014 ft 362 kts 255°
2026-05-05 17:38 39.04742 -103.82149 36007 ft 362 kts 255°
2026-05-05 17:38 39.03668 -103.88467 35998 ft 362 kts 255°
2026-05-05 17:39 39.02586 -103.94803 36002 ft 363 kts 255°
2026-05-05 17:39 39.01506 -104.01103 35993 ft 363 kts 255°
2026-05-05 17:40 39.00416 -104.07445 35981 ft 364 kts 255°
2026-05-05 17:40 38.99320 -104.13801 35988 ft 364 kts 255°
2026-05-05 17:41 38.98221 -104.20155 35999 ft 364 kts 255°
2026-05-05 17:41 38.97117 -104.26509 36001 ft 364 kts 255°
2026-05-05 17:42 38.96006 -104.32880 36020 ft 366 kts 255°
2026-05-05 17:42 38.94890 -104.39262 36025 ft 367 kts 255°
2026-05-05 17:43 38.93769 -104.45655 36039 ft 367 kts 254°
2026-05-05 17:43 38.92642 -104.52052 36039 ft 367 kts 254°
2026-05-05 17:44 38.91513 -104.58445 36038 ft 367 kts 254°
2026-05-05 17:44 38.90379 -104.64843 36039 ft 367 kts 254°
2026-05-05 17:45 38.89249 -104.71194 36028 ft 367 kts 254°
2026-05-05 17:45 38.88110 -104.77578 36026 ft 367 kts 254°
2026-05-05 17:46 38.86966 -104.83964 36005 ft 367 kts 254°
2026-05-05 17:46 38.85820 -104.90342 36004 ft 367 kts 254°
2026-05-05 17:47 38.84863 -104.95648 35978 ft 366 kts 254°
2026-05-05 17:47 38.83717 -105.02008 35956 ft 367 kts 254°
2026-05-05 17:48 38.82555 -105.08400 35944 ft 370 kts 254°
2026-05-05 17:48 38.81382 -105.14837 35939 ft 372 kts 254°
2026-05-05 17:49 38.80202 -105.21303 35936 ft 372 kts 254°
2026-05-05 17:49 38.79022 -105.27761 35918 ft 372 kts 253°
2026-05-05 17:50 38.77839 -105.34184 35938 ft 372 kts 253°
2026-05-05 17:50 38.76648 -105.40641 35902 ft 372 kts 253°
2026-05-05 17:51 38.75453 -105.47098 35893 ft 372 kts 253°
2026-05-05 17:51 38.74256 -105.53543 35860 ft 372 kts 253°
2026-05-05 17:52 38.73057 -105.59985 35861 ft 372 kts 253°
2026-05-05 17:52 38.71853 -105.66425 35821 ft 371 kts 253°
2026-05-05 17:53 38.70648 -105.72853 35824 ft 372 kts 253°
2026-05-05 17:53 38.69434 -105.79304 35782 ft 373 kts 253°
2026-05-05 17:54 38.68214 -105.85766 35767 ft 373 kts 253°
2026-05-05 17:54 38.67000 -105.92184 35773 ft 373 kts 253°
2026-05-05 17:55 38.65775 -105.98630 35883 ft 373 kts 253°
2026-05-05 17:55 38.64541 -106.05104 35892 ft 375 kts 253°
2026-05-05 17:56 38.63309 -106.11553 35884 ft 373 kts 253°
2026-05-05 17:56 38.62075 -106.17990 35868 ft 372 kts 253°
2026-05-05 17:57 38.60839 -106.24414 35839 ft 371 kts 253°
2026-05-05 17:57 38.59600 -106.30842 35800 ft 372 kts 253°
2026-05-05 17:58 38.58358 -106.37264 35826 ft 373 kts 252°
2026-05-05 17:58 38.57100 -106.43723 35774 ft 376 kts 252°
2026-05-05 17:59 38.55833 -106.50218 35757 ft 377 kts 252°
2026-05-05 17:59 38.54560 -106.56729 35753 ft 378 kts 252°
2026-05-05 18:00 38.53281 -106.63262 35749 ft 379 kts 252°
2026-05-05 18:00 38.51998 -106.69781 35754 ft 378 kts 252°
2026-05-05 18:01 38.50718 -106.76267 35761 ft 379 kts 252°
2026-05-05 18:01 38.49422 -106.82813 35748 ft 380 kts 252°
2026-05-05 18:02 38.48125 -106.89346 35929 ft 380 kts 252°
2026-05-05 18:02 38.46823 -106.95888 35910 ft 380 kts 252°
2026-05-05 18:03 38.45514 -107.02427 35896 ft 380 kts 252°
2026-05-05 18:03 38.43692 -107.08723 35881 ft 379 kts 245°